Página principal
METAR-TAF:

METAR-TAF

Aeroportos :

Podor, Senegal

latitude: 16-39N, longitude: 014-58W, altura: 6 m

Observação actual do tempo

O boletim foi feito há 1 hora e 2 minutos, às 00:00 UTC
Vento 6 kt de oes-sudoeste
Temperatura 27°C
Humidade 74%
Pressão 1010 hPa
Visibilidade: 8000 m

METAR: GOSP 160000Z 24006KT 8000 NSC 27/22 Q1010

Hora: 01:02 (01:02 UTC)


TAF: em falta

Observações e previsões do tempo de mais de 4000 aeroportos (mensagens METAR e TAF).

As estações disponíveis são os pontos amarelos e vermelhos sobre o mapa.

Mova o rato sobre o mapa para ver o nome da estação.

Depois clique no ponto para visualizar as observações e previsões meteorológicas.

Para alterar o mapa : clique nos botões verdes com uma cruz preta para aumentar o zoom; no botão verde com uma pitada de zoom; ou nas setas verdes para mapas adjacentes.


METAR-TAF: